Regional Weather Roundup
Issued by NWS Newport/Morehead, NC

Home | Current Version | Previous Version | Text Only | Print | Product List | Glossary On
Versions: 1 2 3 4 5 6 7 8 9 10 11 12 13 14 15 16 17 18 19 20 21 22 23 24 25 26 27 28 29 30 31 32 33 34 35 36 37 38 39 40 41 42 43 44 45 46 47 48 49 50
000
ASUS42 KMHX 252325
RWRMHX
WEATHER ROUNDUP FOR EASTERN NORTH CAROLINA
NATIONAL WEATHER SERVICE NEWPORT/MOREHEAD CITY NC
700 PM EDT SUN JUN 25 2017

NOTE: "FAIR" INDICATES FEW OR NO CLOUDS BELOW 12,000 FEET
WITH NO SIGNIFICANT WEATHER AND/OR OBSTRUCTIONS TO VISIBILITY

NCZ015>017-031-032-045>047-102-103-260000-
NORTH COAST

CITY           SKY/WX    TMP DP  RH WIND       PRES   REMARKS
EDENTON        SUNNY     85  67  55 CALM      30.01R
ELIZABETH CITY PTSUNNY   83  72  69 NE7       30.00R
KITTY HAWK     MOCLDY    81  74  77 CALM      29.99R
MANTEO         SUNNY     82  73  74 SW5       30.00S

$$

NCZ045>047-081-094-103-104-260000-
CENTRAL COAST

CITY           SKY/WX    TMP DP  RH WIND       PRES   REMARKS
FRISCO         CLOUDY    80  75  84 SW7       30.01R

$$

NCZ095-097-098-100-101-260000-
SOUTHERN COAST

CITY           SKY/WX    TMP DP  RH WIND       PRES   REMARKS
BEAUFORT       CLOUDY    77  72  84 SW7       30.02S
CEDAR ISLAND   NOT AVBL
JACKSONVILLE   CLOUDY    83  74  74 N6        30.01R
PINEY ISLAND   CLOUDY   N/A N/A N/A SW8       30.01R
WILMINGTON     TSTM      77  75  93 SW14      30.04R


$$

NCZ011>013-027>030-043-044-078>080-089-090>093-098-260000-
COASTAL PLAIN

CITY           SKY/WX    TMP DP  RH WIND       PRES   REMARKS
AHOSKIE          N/A     77  71  81 CALM      30.02R
CLINTON        CLOUDY    83  71  67 CALM      30.04R
ELIZABETHTOWN  NOT AVBL
GOLDSBORO      NOT AVBL
GREENVILLE     CLOUDY    82  64  54 NW3       30.04R
HAVELOCK       PTSUNNY   78  71  79 S8        30.03R
KENANSVILLE    PTSUNNY   82  70  65 CALM      30.03S
KINSTON        NOT AVBL
NEW BERN       MOSUNNY   83  71  67 NW3       30.03R
RICHLANDS      CLOUDY    83  75  77 CALM      30.02S
ROCKY MOUNT    MOSUNNY   81  65  58 W6        30.03S
WASHINGTON     CLOUDY   N/A N/A N/A NW3       30.02R
WHITEVILLE     LGT RAIN  77  72  84 S6        30.05R

$$

AMZ130-135-150-152-154-156-158-170-250-252-270-ANZ085-086-088-633-658-670-260000-
MARINE OBSERVATIONS

STATION/POSITION TIME  TEMP    WIND        PRES    WAVE   SWELL
                       AIR SEA DIR/SP/G            HT/PER HT/PER
                 (UTC) (F)     (DEG/KT/KT) (MB)    (FT/S) (FT/S)
CHESAPEAKE LIGHT NOT AVBL
64 E VA BEACH    2250   75 76  220/  6/  6 1016.2    3/ 6   3/ 6
DUCK             2254   75 63   70/  5/ 10 1015.3
2 E DUCK         NOT AVBL
OREGON INLET     2254   82 83  190/  7/  8 1015.7
13E OREGON INLT  2248      79                N/A     2/ 8   2/ 8
HATTERAS CG      2254   79 79  220/  6/ 10 1016.1
DIAMOND BUOY     2250   79 80  240/ 10/ 12 1016.2    3/ 6   2/ 6
CAPE LOOKOUT     2300   78     280/  8/ 10 1016.0
BEAUFORT LAB     2254   76 80  240/  3/  5 1016.2
30 SE NEW RVR IN 2308   80 81  250/ 12/ 16 1016.9
30 SE NEW RVR IN 2313      81                N/A     4/ 6
27 SE WRIGHTSVLE 2308   78 80  240/ 16/ 21 1016.8
5 SE WRIGHTSVLE  2308   80 80  230/ 12/ 17 1017.1
225 S CAPE HAT   2250   81 81  210/ 12/ 14 1019.4    4/ 6   2/ 6
41 SE CHARLESTON 2310   80 81  290/ 10/ 14 1017.6

$$




USA.gov is the U.S. government's official web portal to all federal, state and local government web resources and services.